Location: Chervonnoye
(48.6000°N, 34.4000°E)
Time: 13:51:17
(UTC+00:00)

CAS-4B - Pass Details

Date: 07 December 2021
Orbit: 529 x 538 km, 43.0° (Epoch: 21 January)

Event Time Altitude Azimuth Distance (km) Brightness Sun altitude
Rises 16:24:14 0° 212° (SSW) 2,671 ? -24.9°
Reaches altitude 10° 16:27:09 10° 190° (S) 1,781 ? -25.4°
Enters shadow 16:27:44 12° 183° (S) 1,650 ? -25.5°
